[[{"header":{"parameterUnit":"m.s-1","parameterCategory":1,"la1":30.2991,"la2":30.254,"lo1":-89.0895,"lo2":-89.0444,"dy":0.0017,"dx":0.0017,"nx":28,"ny":28,"refTime":"2023-10-17T21:00:00:Z","depth":0,"parameterNumber":2,"parameterNumberName":"U-component_of_WINDS"},"data":[0,0,0,0,0,0,0,0,0,0,0,0,0,0,0,0,0,0,0,0,0,0,0,0,0,0,0,0,0,0,0,0,0,0,0,0,0,0,0,0,0,0,0,0,0,0,0,0,0,0,0,0,0,0,0,0,0,0,-1.0151,-1.0151,0,-1.013,-1.013,-1.013,-1.0113,-1.0113,-1.0113,-1.0113,-1.0093,-1.0093,-1.0092,0,0,0,0,0,0,0,0,0,0,0,0,0,-1.0178,-1.0177,-1.0151,-1.0151,-1.015,-1.013,-1.013,-1.013,-1.0114,-1.0113,-1.0113,-1.0113,-1.0093,-1.0093,-1.0092,0,0,0,0,0,0,0,0,0,0,0,0,0,-1.0162,-1.0177,-1.0151,-1.014,-1.0139,-1.013,-1.013,-1.013,-1.0114,-1.0113,-1.0113,-1.0113,-1.0093,-1.0093,-1.0092,-1.0094,0,0,-1.009,-1.009,0,0,0,0,0,0,0,0,-1.0163,-1.0161,-1.0142,-1.0141,-1.0139,-1.0124,-1.0132,-1.0118,-1.0114,-1.0123,-1.0113,-1.0113,-1.0104,-1.0102,-1.0099,-1.0093,-1.0092,-1.009,-1.009,-1.009,-1.009,0,0,0,0,0,0,0,-1.0164,-1.0162,-1.0143,-1.0141,-1.014,-1.0136,-1.0134,-1.0129,-1.0115,-1.0122,-1.0121,-1.0119,-1.0103,-1.0099,-1.0098,-1.0091,-1.009,-1.009,-1.009,-1.0089,-1.0085,-1.0086,0,0,0,0,0,0,-1.0167,-1.0163,-1.0143,-1.0142,-1.0151,-1.0136,-1.0133,-1.0129,-1.0115,-1.0113,-1.0119,-1.0118,-1.0101,-1.0099,-1.0098,-1.0098,-1.009,-1.0089,-1.0089,-1.0085,-1.0085,-1.0086,0,0,0,0,0,0,-1.0168,-1.0165,-1.0144,-1.0152,-1.0149,-1.0136,-1.0131,-1.0129,-1.0125,-1.0113,-1.011,-1.0118,-1.01,-1.0098,-1.0095,-1.0097,-1.0089,-1.0088,-1.0085,-1.0085,-1.0086,-1.0099,0,0,0,0,0,0,-1.0168,-1.0166,-1.0166,-1.0152,-1.0149,-1.0141,-1.0132,-1.0129,-1.0124,-1.0123,-1.0111,-1.0109,-1.01,-1.0096,-1.0094,-1.0096,-1.0088,-1.0085,-1.0085,-1.0085,-1.0098,-1.01,-1.0101,0,0,0,0,0,-1.0169,-1.0171,-1.0166,-1.0163,-1.0149,-1.0141,-1.0139,-1.0129,-1.0125,-1.0125,-1.0117,-1.0109,-1.0097,-1.0095,-1.0093,-1.0095,-1.0084,-1.0085,-1.0085,-1.0098,-1.0099,-1.0101,0,0,0,0,0,0,-1.0185,-1.0169,-1.0163,-1.016,-1.0152,-1.0139,-1.0138,-1.0131,-1.0125,-1.0124,-1.0112,-1.0109,-1.0107,-1.0101,-1.0099,-1.0096,-1.009,-1.009,-1.01,-1.0101,-1.0103,-1.0104,-1.0088,0,0,0,0,0,-1.0188,-1.0183,-1.0169,-1.0168,-1.0164,-1.0152,-1.0148,-1.0141,-1.0133,-1.0129,-1.0121,-1.0113,-1.0108,-1.0104,-1.0099,-1.0098,-1.0095,-1.0098,-1.01,-1.0101,-1.0101,-1.01,-1.0101,-1.0087,-1.0087,-1.0087,0,0,-1.0194,-1.0184,-1.0182,-1.017,-1.0163,-1.0159,-1.0149,-1.0145,-1.0141,-1.0129,-1.0124,-1.0118,-1.0109,-1.0106,-1.0105,-1.0101,-1.0104,-1.0102,-1.0103,-1.0102,-1.0101,-1.0102,-1.0103,-1.0088,-1.0088,-1.0088,0,0,-1.0203,-1.0195,-1.0193,-1.0186,-1.0175,-1.0167,-1.0167,-1.0155,-1.015,-1.0145,-1.0136,-1.0132,-1.0123,-1.0117,-1.0112,-1.0119,-1.0112,-1.0118,-1.0125,-1.0124,-1.0125,-1.0126,-1.0128,-1.0129,-1.0118,-1.0118,-1.0118,0,-1.0212,-1.0204,-1.0193,-1.0189,-1.0184,-1.0172,-1.017,-1.0164,-1.0153,-1.015,-1.0146,-1.0134,-1.0127,-1.0123,-1.0125,-1.0122,-1.0121,-1.0119,-1.0126,-1.0127,-1.0127,-1.0129,-1.013,-1.0119,-1.0119,-1.0119,-1.0119,0,-1.0215,-1.021,-1.021,-1.0198,-1.0193,-1.0191,-1.0179,-1.0176,-1.0169,-1.0162,-1.0158,-1.0149,-1.0141,-1.014,-1.0134,-1.0135,-1.0133,-1.0128,-1.0121,-1.0129,-1.0131,-1.0132,-1.012,-1.012,-1.0119,-1.0119,0,0,-1.0232,-1.0215,-1.0215,-1.0209,-1.0197,-1.0193,-1.019,-1.0182,-1.018,-1.0172,-1.0169,-1.0162,-1.0157,-1.0152,-1.0145,-1.0145,-1.015,-1.0139,-1.0139,-1.0141,-1.0151,-1.0155,-1.0156,-1.0146,-1.0146,-1.0146,-1.0152,0,-1.0239,-1.0231,-1.0221,-1.0218,-1.0213,-1.0202,-1.0199,-1.0192,-1.0185,-1.018,-1.0173,-1.0168,-1.0162,-1.0159,-1.0158,-1.015,-1.0152,-1.0149,-1.0143,-1.0143,-1.0145,-1.0157,-1.0161,-1.0166,-1.0152,-1.0153,-1.0153,0,-1.0245,-1.0238,-1.0233,-1.0221,-1.0219,-1.0217,-1.0209,-1.0204,-1.0196,-1.0191,-1.0186,-1.0178,-1.0174,-1.0169,-1.0164,-1.0162,-1.0159,-1.0155,-1.0155,-1.0154,-1.0148,-1.0155,-1.0168,-1.0169,-1.0154,-1.0154,-1.0153,0,-1.0257,-1.0247,-1.0242,-1.0238,-1.0225,-1.0223,-1.0217,-1.0209,-1.0205,-1.0198,-1.0195,-1.0189,-1.0185,-1.018,-1.0171,-1.0168,-1.0167,-1.0161,-1.0163,-1.0163,-1.0163,-1.0163,-1.0175,-1.0162,-1.0162,-1.0162,-1.0162,0,-1.0265,-1.0263,-1.0248,-1.0245,-1.0243,-1.0232,-1.0229,-1.0223,-1.0215,-1.0211,-1.0202,-1.0199,-1.0187,-1.0183,-1.0176,-1.0173,-1.0172,-1.0168,-1.0166,-1.0168,-1.0168,-1.0165,-1.0165,-1.0162,-1.0162,-1.0162,-1.0162,0,-1.0278,-1.0268,-1.0263,-1.025,-1.0247,-1.0246,-1.0235,-1.0232,-1.0225,-1.0221,-1.0219,-1.0208,-1.0202,-1.0193,-1.0185,-1.018,-1.0178,-1.0176,-1.0181,-1.018,-1.0182,-1.0182,-1.0192,-1.0193,-1.018,-1.018,-1.018,0,-1.0284,-1.0282,-1.0269,-1.0265,-1.026,-1.0254,-1.025,-1.0239,-1.0235,-1.0226,-1.0224,-1.0218,-1.0212,-1.0204,-1.0195,-1.0189,-1.0186,-1.019,-1.0185,-1.0187,-1.0185,-1.0185,-1.0185,-1.0191,-1.0191,-1.0191,-1.0191,0,-1.0294,-1.029,-1.0283,-1.0275,-1.027,-1.0264,-1.0257,-1.0255,-1.0243,-1.0239,-1.0233,-1.0228,-1.022,-1.0214,-1.0206,-1.0201,-1.0194,-1.0193,-1.0193,-1.0195,-1.0199,-1.0196,-1.0184,-1.0193,-1.0193,-1.0193,-1.0193,-1.0192,-1.0304,-1.0301,-1.0291,-1.0285,-1.0278,-1.0272,-1.0269,-1.0261,-1.0256,-1.0248,-1.0242,-1.0236,-1.0228,-1.0218,-1.0213,-1.0208,-1.0205,-1.0206,-1.0206,-1.0206,-1.0206,-1.02,-1.0207,-1.0207,-1.0207,-1.0207,-1.0207,0,-1.0313,-1.0307,-1.0301,-1.0291,-1.0286,-1.028,-1.0272,-1.0268,-1.0263,-1.0256,-1.025,-1.0243,-1.0237,-1.0228,-1.0222,-1.022,-1.0217,-1.0219,-1.0219,-1.0218,-1.021,-1.021,-1.0222,-1.0222,-1.0222,-1.0222,-1.0222,-1.0222,-1.0318,-1.0313,-1.0307,-1.0299,-1.0293,-1.0287,-1.0283,-1.0277,-1.0271,-1.0263,-1.0258,-1.0252,-1.0245,-1.0237,-1.0232,-1.0229,-1.0227,-1.023,-1.0227,-1.0219,-1.0218,-1.0217,-1.0217,-1.023,-1.023,-1.0235,-1.0235,-1.0235]},{"header":{"parameterUnit":"m.s-1","parameterCategory":1,"la1":30.2991,"la2":30.254,"lo1":-89.0895,"lo2":-89.0444,"dy":0.0017,"dx":0.0017,"nx":28,"ny":28,"refTime":"2023-10-17T21:00:00:Z","depth":0,"parameterNumber":3,"parameterNumberName":"V-component_of_WINDS"},"data":[0,0,0,0,0,0,0,0,0,0,0,0,0,0,0,0,0,0,0,0,0,0,0,0,0,0,0,0,0,0,0,0,0,0,0,0,0,0,0,0,0,0,0,0,0,0,0,0,0,0,0,0,0,0,0,0,0,0,3.157,3.157,0,3.1547,3.1546,3.1546,3.1506,3.1505,3.1505,3.1504,3.148,3.148,3.148,0,0,0,0,0,0,0,0,0,0,0,0,0,3.1582,3.1582,3.157,3.157,3.157,3.1547,3.1546,3.1546,3.1506,3.1505,3.1505,3.1504,3.148,3.148,3.148,0,0,0,0,0,0,0,0,0,0,0,0,0,3.1569,3.1582,3.157,3.1547,3.1545,3.1547,3.1546,3.1546,3.1507,3.1505,3.1504,3.1503,3.148,3.148,3.148,3.1503,0,0,3.148,3.148,0,0,0,0,0,0,0,0,3.157,3.1569,3.1551,3.1549,3.1546,3.1528,3.1541,3.1531,3.1507,3.1521,3.1504,3.1503,3.1497,3.1496,3.1493,3.1501,3.15,3.148,3.148,3.148,3.148,0,0,0,0,0,0,0,3.1571,3.157,3.1561,3.1551,3.1548,3.1538,3.1535,3.1539,3.1516,3.152,3.1517,3.1515,3.1495,3.1494,3.1493,3.15,3.148,3.148,3.148,3.148,3.1525,3.1526,0,0,0,0,0,0,3.1575,3.1571,3.1562,3.156,3.1556,3.1539,3.1535,3.1535,3.1515,3.1511,3.1516,3.1513,3.1494,3.1493,3.1492,3.1516,3.148,3.148,3.148,3.1524,3.1525,3.1526,0,0,0,0,0,0,3.1576,3.1575,3.1563,3.1565,3.1562,3.154,3.154,3.1535,3.1533,3.1512,3.1508,3.1518,3.1493,3.1492,3.15,3.1514,3.148,3.148,3.1522,3.1524,3.1526,3.1565,0,0,0,0,0,0,3.1576,3.1575,3.1583,3.1565,3.1562,3.1571,3.1541,3.1536,3.1533,3.153,3.1513,3.1509,3.1492,3.15,3.15,3.1514,3.1481,3.1521,3.1523,3.1525,3.1562,3.1568,3.1573,0,0,0,0,0,3.1577,3.1596,3.1584,3.1583,3.1572,3.1572,3.1571,3.155,3.1535,3.1543,3.1529,3.151,3.1513,3.1501,3.1501,3.1515,3.152,3.1523,3.1525,3.156,3.1567,3.1572,0,0,0,0,0,0,3.1616,3.1593,3.158,3.1593,3.1585,3.1565,3.1575,3.1558,3.1554,3.1551,3.1526,3.1523,3.1534,3.1526,3.1513,3.1536,3.1514,3.1516,3.154,3.1547,3.1552,3.1553,3.1481,0,0,0,0,0,3.1626,3.1628,3.1608,3.1622,3.1618,3.1598,3.1597,3.1582,3.1572,3.1569,3.1556,3.1547,3.1546,3.1546,3.1544,3.1562,3.1557,3.1571,3.1576,3.1581,3.1583,3.159,3.1596,3.1535,3.1535,3.1535,0,0,3.1647,3.1635,3.1637,3.1629,3.1621,3.1623,3.1595,3.1599,3.16,3.1569,3.1576,3.1567,3.1556,3.1568,3.1573,3.1562,3.1599,3.1584,3.1587,3.1587,3.1593,3.1599,3.1604,3.1536,3.1536,3.1536,0,0,3.1686,3.1678,3.1688,3.168,3.1668,3.1655,3.1657,3.1641,3.1633,3.164,3.1616,3.1618,3.1617,3.161,3.1606,3.1644,3.1626,3.1644,3.167,3.1678,3.1683,3.1687,3.1699,3.1704,3.1647,3.1647,3.1647,0,3.1714,3.1716,3.1695,3.17,3.1697,3.167,3.168,3.1674,3.1662,3.1661,3.1648,3.1646,3.1637,3.1647,3.1656,3.1655,3.1656,3.1645,3.1684,3.1688,3.1691,3.1703,3.1707,3.1649,3.1649,3.1649,3.1648,0,3.175,3.1752,3.1762,3.1751,3.1749,3.1757,3.1737,3.1738,3.1724,3.1711,3.1718,3.1707,3.1701,3.1703,3.1689,3.1711,3.1704,3.1689,3.1666,3.17,3.171,3.1714,3.1652,3.1651,3.1651,3.165,0,0,3.1811,3.1789,3.1793,3.1788,3.1773,3.1774,3.1781,3.1776,3.1777,3.177,3.1775,3.1775,3.176,3.1756,3.1741,3.1749,3.1778,3.1731,3.1731,3.1739,3.18,3.1811,3.1816,3.1766,3.1767,3.1768,3.18,0,3.1846,3.1855,3.1837,3.1851,3.1852,3.1827,3.1833,3.1825,3.1814,3.1814,3.1802,3.1802,3.1783,3.178,3.1786,3.1773,3.1789,3.177,3.1769,3.1769,3.1771,3.1822,3.1833,3.1864,3.1804,3.1805,3.1806,0,3.1887,3.1882,3.1896,3.1881,3.1881,3.1886,3.188,3.1881,3.1871,3.1863,3.1859,3.1841,3.1847,3.1826,3.1833,3.1821,3.1819,3.1813,3.1814,3.1811,3.1788,3.1819,3.1874,3.1878,3.1812,3.1811,3.1811,0,3.1929,3.1926,3.1934,3.193,3.1913,3.1917,3.191,3.1899,3.1898,3.1893,3.1891,3.1887,3.1885,3.1882,3.1864,3.1851,3.1873,3.1851,3.1865,3.1865,3.1869,3.1869,3.1923,3.1871,3.1871,3.1871,3.1871,0,3.1968,3.1977,3.1952,3.1957,3.1966,3.1946,3.1956,3.1946,3.1937,3.1939,3.1918,3.1921,3.1898,3.1898,3.1885,3.1892,3.1891,3.1884,3.188,3.1885,3.1886,3.1882,3.1879,3.1872,3.1872,3.1872,3.1872,0,3.2015,3.1999,3.2005,3.1989,3.1985,3.1993,3.1978,3.1982,3.197,3.1973,3.1973,3.1954,3.1953,3.1936,3.1931,3.1922,3.1934,3.1927,3.1937,3.1934,3.1949,3.1947,3.2001,3.2007,3.1954,3.1954,3.1955,0,3.204,3.2047,3.2031,3.2031,3.2025,3.2026,3.2024,3.2004,3.2003,3.1993,3.1998,3.1995,3.1992,3.1992,3.1978,3.1974,3.1965,3.1985,3.1965,3.1969,3.1964,3.1963,3.1963,3.1988,3.1989,3.199,3.199,0,3.2087,3.2079,3.2076,3.2072,3.207,3.2066,3.206,3.2061,3.204,3.204,3.2038,3.2036,3.2032,3.2029,3.2023,3.2016,3.1999,3.1997,3.2,3.2004,3.2009,3.2005,3.1947,3.1995,3.1995,3.1994,3.1994,3.1994,3.2122,3.2127,3.2116,3.2115,3.2109,3.2104,3.2106,3.2095,3.2094,3.2088,3.2077,3.2078,3.2068,3.2058,3.2053,3.2053,3.2043,3.2047,3.2048,3.2049,3.2051,3.2011,3.2052,3.2051,3.2051,3.2051,3.2051,0,3.2166,3.2159,3.2158,3.215,3.2149,3.2135,3.2127,3.2127,3.2128,3.2121,3.2118,3.2117,3.2114,3.2101,3.2097,3.2099,3.2091,3.2099,3.2097,3.2096,3.2061,3.2058,3.2105,3.2105,3.2105,3.2105,3.2105,3.2105,3.2189,3.2195,3.2186,3.2189,3.2181,3.2181,3.2178,3.2174,3.2168,3.2167,3.2165,3.2156,3.2146,3.2142,3.2139,3.2135,3.2134,3.2143,3.2136,3.2104,3.2098,3.2093,3.209,3.2143,3.2143,3.2171,3.2171,3.2171]}]]